If you wish to contribute or participate in the discussions about articles you are invited to join SKYbrary as a registered user

 Actions

Kobe Airport

From SKYbrary Wiki

RJBE
Airport
ICAO: RJBE – IATA: UKB
Summary
Name Kobe Airport
Region Asia and Pacific
Territory Japan JP.gif
Location Chuo-ku, Kansai
Serving Kobe
Elevation 6.706 m
22 ft6.706 m
Coordinates 34° 38' 1.75" N, 135° 13' 24.51" E
Runways
Designator Length Width Surface ROPS
9/27 2500 m8,202.1 ft
61 m200.131 ft
ASP /


METAR
Observation RJBE 232300Z 06014KT 9999 FEW008 SCT050 BKN100 19/17 Q1017
Station KOBE
Date/Time 23 October 2019 23:00:00
Wind direction 60°
Wind speed 14 kts
Lowest cloud amount few clouds
Temperature 19°C
Dew point 17°C
Humidity 88%
QNH 1017 hPa
Weather condition n/a

Kobe Airport is an airport on an artificial island just off the coast of Kobe, 8 km4.32 nm
8,000 m
26,246.719 ft
south of Sannomiya Station, Japan. It primarily handles domestic flights, but can also accommodate international charter flights.

Climatology

Humid subtropical climate (Köppen climate classification Cfa).

Maps

Terrain

Loading map...

Airport Layout

Loading map...


Accidents & Serious Incidents at or in vicinity of RJBE

None on SKYbrary